Zurück zum Katalog

IRIDIUM 124

AktivKommunikationPO
NORAD 42810·PAYLOAD·🇺🇸 United States

Gestartet Jun 25, 2017 von Vandenberg Space Force Base

Loading…

Nächste Überflüge (nächste 24 Stunden)

TLE

AktuellSource: CelesTrak SupGP

Epoche: Sep 14, 2026, 21:35 UTC

1 42810C 17039H   26257.89965278  .00003445  00000+0  10256-2 0  2579
2 42810  86.4437 252.8290 0002445  88.6727 242.8909 14.43276885    13

Verfolge IRIDIUM 124 in Echtzeit mit AllMySat

Download on the App Store